Location: Joplin, MO
(37.0842°N, 94.5133°W)
Time: 22:19:01
(UTC+02:00)

Transit 2A Rocket - Pass Details

Date: 04 April 2023
Orbit: 584 x 914 km, 66.7° (Epoch: 06 June)

Event Time Altitude Azimuth Distance (km) Brightness Sun altitude
Rises 16:29:21 0° 195° (SSW) 3,200 8.2 28.8°
Reaches altitude 10° 16:31:39 10° 192° (SSW) 2,328 7.6 29.2°
Maximum altitude 16:36:57 60° 113° (ESE) 947 6.8 30.3°
Drops below altitude 10° 16:42:44 10° 35° (NE) 2,536 8.0 31.4°
Sets 16:45:21 0° 32° (NNE) 3,509 8.6 31.8°
